Time,TemperatureF,DewpointF,PressureIn,WindDirection,WindDirectionDegrees,WindSpeedMPH,WindSpeedGustMPH,Humidity,HourlyPrecipIn,Conditions,Clouds,dailyrainin,SolarRadiationWatts/m^2,SoftwareType,DateUTC
2013-01-24 00:03:00,-3.0,-13.0,-100.00,NE,47,1.0,5.0,60,0.00,,,0.00,0.000000,,2013-01-24 05:03:00,
2013-01-24 00:12:00,-3.0,-13.0,-100.00,NE,47,1.0,5.0,60,0.00,,,0.00,0.000000,,2013-01-24 05:12:00,
2013-01-24 00:33:00,-6.0,-13.0,-100.00,NNE,32,0.0,2.0,70,0.00,,,0.00,0.000000,,2013-01-24 05:33:00,
2013-01-24 00:43:00,-6.0,-13.0,-100.00,NNE,32,0.0,2.0,70,0.00,,,0.00,0.000000,,2013-01-24 05:43:00,
2013-01-24 00:53:00,-6.0,-13.0,-100.00,NNE,32,0.0,2.0,70,0.00,,,0.00,0.000000,,2013-01-24 05:53:00,
2013-01-24 01:03:00,-6.0,-13.0,-100.00,NNE,32,0.0,2.0,70,0.00,,,0.00,0.000000,,2013-01-24 06:03:00,
2013-01-24 01:12:00,-6.0,-13.0,-100.00,NNE,32,0.0,2.0,70,0.00,,,0.00,0.000000,,2013-01-24 06:12:00,
2013-01-24 01:42:00,-6.0,-13.0,-100.00,NE,47,0.0,2.0,72,0.00,,,0.00,0.000000,,2013-01-24 06:42:00,
2013-01-24 01:53:00,-6.0,-13.0,-100.00,NE,47,0.0,2.0,72,0.00,,,0.00,0.000000,,2013-01-24 06:53:00,
2013-01-24 02:03:00,-6.0,-13.0,-100.00,NE,47,0.0,2.0,72,0.00,,,0.00,0.000000,,2013-01-24 07:03:00,
2013-01-24 02:12:00,-6.0,-13.0,-100.00,NE,47,0.0,2.0,72,0.00,,,0.00,0.000000,,2013-01-24 07:12:00,
2013-01-24 02:34:00,-7.0,-14.0,-100.00,West,279,0.0,0.0,72,0.00,,,0.00,0.000000,,2013-01-24 07:34:00,
2013-01-24 02:43:00,-7.0,-14.0,-100.00,West,279,0.0,0.0,72,0.00,,,0.00,0.000000,,2013-01-24 07:43:00,
2013-01-24 02:53:00,-7.0,-14.0,-100.00,West,279,0.0,0.0,72,0.00,,,0.00,0.000000,,2013-01-24 07:53:00,
2013-01-24 03:03:00,-7.0,-14.0,-100.00,West,279,0.0,0.0,72,0.00,,,0.00,0.000000,,2013-01-24 08:03:00,
2013-01-24 03:12:00,-7.0,-14.0,-100.00,West,279,0.0,0.0,72,0.00,,,0.00,0.000000,,2013-01-24 08:12:00,
2013-01-24 03:43:00,-9.0,-16.0,-100.00,WNW,293,0.0,1.0,72,0.00,,,0.00,0.000000,,2013-01-24 08:43:00,
2013-01-24 03:53:00,-9.0,-16.0,-100.00,WNW,293,0.0,1.0,72,0.00,,,0.00,0.000000,,2013-01-24 08:53:00,
2013-01-24 04:03:00,-9.0,-16.0,-100.00,WNW,293,0.0,1.0,72,0.00,,,0.00,0.000000,,2013-01-24 09:03:00,
2013-01-24 04:13:00,-9.0,-16.0,-100.00,WNW,293,0.0,1.0,72,0.00,,,0.00,0.000000,,2013-01-24 09:13:00,
2013-01-24 04:43:00,-9.0,-15.0,-100.00,NW,322,1.0,4.0,74,0.00,,,0.00,0.000000,,2013-01-24 09:43:00,
2013-01-24 04:53:00,-9.0,-15.0,-100.00,NW,322,1.0,4.0,74,0.00,,,0.00,0.000000,,2013-01-24 09:53:00,
2013-01-24 05:03:00,-9.0,-15.0,-100.00,NW,322,1.0,4.0,74,0.00,,,0.00,0.000000,,2013-01-24 10:03:00,
2013-01-24 05:12:00,-9.0,-15.0,-100.00,NW,322,1.0,4.0,74,0.00,,,0.00,0.000000,,2013-01-24 10:12:00,
2013-01-24 05:43:00,-9.0,-16.0,-100.00,West,262,0.0,4.0,71,0.00,,,0.00,0.000000,,2013-01-24 10:43:00,
2013-01-24 05:53:00,-9.0,-16.0,-100.00,West,262,0.0,4.0,71,0.00,,,0.00,0.000000,,2013-01-24 10:53:00,
2013-01-24 06:03:00,-9.0,-16.0,-100.00,West,262,0.0,4.0,71,0.00,,,0.00,0.000000,,2013-01-24 11:03:00,
2013-01-24 06:12:00,-9.0,-16.0,-100.00,West,262,0.0,4.0,71,0.00,,,0.00,0.000000,,2013-01-24 11:12:00,
2013-01-24 06:43:00,-9.0,-16.0,-100.00,NNE,14,0.0,2.0,71,0.00,,,0.00,0.000000,,2013-01-24 11:43:00,
2013-01-24 06:53:00,-9.0,-16.0,-100.00,NNE,14,0.0,2.0,71,0.00,,,0.00,0.000000,,2013-01-24 11:53:00,
2013-01-24 07:03:00,-9.0,-16.0,-100.00,NNE,14,0.0,2.0,71,0.00,,,0.00,0.000000,,2013-01-24 12:03:00,
2013-01-24 07:12:00,-9.0,-16.0,-100.00,NNE,14,0.0,2.0,71,0.00,,,0.00,0.000000,,2013-01-24 12:12:00,
2013-01-24 07:43:00,-6.0,-12.0,-100.00,North,359,3.0,4.0,74,0.00,,,0.00,0.000000,,2013-01-24 12:43:00,
2013-01-24 07:53:00,-6.0,-12.0,-100.00,North,359,3.0,4.0,74,0.00,,,0.00,0.000000,,2013-01-24 12:53:00,
2013-01-24 08:03:00,-6.0,-12.0,-100.00,North,359,3.0,4.0,74,0.00,,,0.00,0.000000,,2013-01-24 13:03:00,
2013-01-24 08:13:00,-6.0,-12.0,-100.00,North,359,3.0,4.0,74,0.00,,,0.00,0.000000,,2013-01-24 13:13:00,
2013-01-24 08:43:00,-2.0,-10.0,-100.00,NNW,331,2.0,5.0,68,0.00,,,0.00,36.000000,,2013-01-24 13:43:00,
2013-01-24 08:53:00,-2.0,-10.0,-100.00,NNW,331,2.0,5.0,68,0.00,,,0.00,36.000000,,2013-01-24 13:53:00,
2013-01-24 09:03:00,-2.0,-10.0,-100.00,NNW,331,2.0,5.0,68,0.00,,,0.00,36.000000,,2013-01-24 14:03:00,
2013-01-24 09:12:00,-2.0,-10.0,-100.00,NNW,331,2.0,5.0,68,0.00,,,0.00,36.000000,,2013-01-24 14:12:00,
2013-01-24 09:43:00,4.0,-8.0,-100.00,NNW,335,4.0,8.0,57,0.00,,,0.00,159.000000,,2013-01-24 14:43:00,
2013-01-24 09:54:00,4.0,-8.0,-100.00,NNW,335,4.0,8.0,57,0.00,,,0.00,159.000000,,2013-01-24 14:54:00,
2013-01-24 10:04:00,4.0,-8.0,-100.00,NNW,335,4.0,8.0,57,0.00,,,0.00,159.000000,,2013-01-24 15:04:00,
2013-01-24 10:13:00,4.0,-8.0,-100.00,NNW,335,4.0,8.0,57,0.00,,,0.00,159.000000,,2013-01-24 15:13:00,
2013-01-24 10:43:00,9.0,-8.0,-100.00,NNW,347,4.0,10.0,46,0.00,,,0.00,218.000000,,2013-01-24 15:43:00,
2013-01-24 10:53:00,9.0,-8.0,-100.00,NNW,347,4.0,10.0,46,0.00,,,0.00,218.000000,,2013-01-24 15:53:00,
2013-01-24 11:04:00,9.0,-8.0,-100.00,NNW,347,4.0,10.0,46,0.00,,,0.00,218.000000,,2013-01-24 16:04:00,
2013-01-24 11:12:00,9.0,-8.0,-100.00,NNW,347,4.0,10.0,46,0.00,,,0.00,218.000000,,2013-01-24 16:12:00,
2013-01-24 11:33:00,12.0,-8.0,-100.00,NNW,338,5.0,12.0,39,0.00,,,0.00,260.000000,,2013-01-24 16:33:00,
2013-01-24 11:43:00,12.0,-8.0,-100.00,NNW,338,5.0,12.0,39,0.00,,,0.00,260.000000,,2013-01-24 16:43:00,
2013-01-24 12:03:00,12.0,-8.0,-100.00,NNW,338,5.0,12.0,39,0.00,,,0.00,260.000000,,2013-01-24 17:03:00,
2013-01-24 12:12:00,12.0,-8.0,-100.00,NNW,338,5.0,12.0,39,0.00,,,0.00,260.000000,,2013-01-24 17:12:00,
2013-01-24 12:43:00,13.0,-9.0,-100.00,NNW,328,10.0,19.0,36,0.00,,,0.00,279.000000,,2013-01-24 17:43:00,
2013-01-24 12:53:00,13.0,-9.0,-100.00,NNW,328,10.0,19.0,36,0.00,,,0.00,279.000000,,2013-01-24 17:53:00,
2013-01-24 13:03:00,13.0,-9.0,-100.00,NNW,328,10.0,19.0,36,0.00,,,0.00,279.000000,,2013-01-24 18:03:00,
2013-01-24 13:12:00,13.0,-9.0,-100.00,NNW,328,10.0,19.0,36,0.00,,,0.00,279.000000,,2013-01-24 18:12:00,
2013-01-24 13:43:00,14.0,-10.0,-100.00,NW,311,10.0,23.0,33,0.00,,,0.00,287.000000,,2013-01-24 18:43:00,
2013-01-24 13:53:00,14.0,-10.0,-100.00,NW,311,10.0,23.0,33,0.00,,,0.00,287.000000,,2013-01-24 18:53:00,
2013-01-24 14:02:00,14.0,-10.0,-100.00,NW,311,10.0,23.0,33,0.00,,,0.00,287.000000,,2013-01-24 19:02:00,
2013-01-24 14:12:00,14.0,-10.0,-100.00,NW,311,10.0,23.0,33,0.00,,,0.00,287.000000,,2013-01-24 19:12:00,
2013-01-24 14:42:00,13.0,-12.0,-100.00,NW,322,14.0,27.0,31,0.00,,,0.00,263.000000,,2013-01-24 19:42:00,
2013-01-24 14:53:00,13.0,-12.0,-100.00,NW,322,14.0,27.0,31,0.00,,,0.00,263.000000,,2013-01-24 19:53:00,
2013-01-24 15:02:00,13.0,-12.0,-100.00,NW,322,14.0,27.0,31,0.00,,,0.00,263.000000,,2013-01-24 20:02:00,
2013-01-24 15:12:00,13.0,-12.0,-100.00,NW,322,14.0,27.0,31,0.00,,,0.00,263.000000,,2013-01-24 20:12:00,
2013-01-24 16:43:00,13.0,-10.0,-100.00,NW,320,11.0,26.0,34,-99.99,,,0.00,162.000000,,2013-01-24 21:43:00,
2013-01-24 16:53:00,13.0,-10.0,-100.00,NW,320,11.0,26.0,34,-99.99,,,0.00,162.000000,,2013-01-24 21:53:00,
2013-01-24 17:03:00,13.0,-10.0,-100.00,NW,320,11.0,26.0,34,-99.99,,,0.00,162.000000,,2013-01-24 22:03:00,
2013-01-24 17:12:00,13.0,-10.0,-100.00,NW,320,11.0,26.0,34,-99.99,,,0.00,162.000000,,2013-01-24 22:12:00,
2013-01-24 17:42:00,10.0,-9.0,-100.00,NW,320,15.0,28.0,41,0.00,,,0.00,42.000000,,2013-01-24 22:42:00,
2013-01-24 17:53:00,10.0,-9.0,-100.00,NW,320,15.0,28.0,41,0.00,,,0.00,42.000000,,2013-01-24 22:53:00,
2013-01-24 18:03:00,10.0,-9.0,-100.00,NW,320,15.0,28.0,41,0.00,,,0.00,42.000000,,2013-01-24 23:03:00,
2013-01-24 18:12:00,10.0,-9.0,-100.00,NW,320,15.0,28.0,41,0.00,,,0.00,42.000000,,2013-01-24 23:12:00,
2013-01-24 18:43:00,10.0,-4.0,-100.00,NW,326,15.0,32.0,52,0.00,,,0.00,0.000000,,2013-01-24 23:43:00,
2013-01-24 18:52:00,10.0,-4.0,-100.00,NW,326,15.0,32.0,52,0.00,,,0.00,0.000000,,2013-01-24 23:52:00,
2013-01-24 19:02:00,10.0,-4.0,-100.00,NW,326,15.0,32.0,52,0.00,,,0.00,0.000000,,2013-01-25 00:02:00,
2013-01-24 19:12:00,10.0,-4.0,-100.00,NW,326,15.0,32.0,52,0.00,,,0.00,0.000000,,2013-01-25 00:12:00,
2013-01-24 19:32:00,10.0,-2.0,-100.00,NNW,332,12.0,26.0,58,0.00,,,0.00,0.000000,,2013-01-25 00:32:00,
2013-01-24 19:42:00,10.0,-2.0,-100.00,NNW,332,12.0,26.0,58,0.00,,,0.00,0.000000,,2013-01-25 00:42:00,
2013-01-24 19:53:00,10.0,-2.0,-100.00,NNW,332,12.0,26.0,58,0.00,,,0.00,0.000000,,2013-01-25 00:53:00,
2013-01-24 20:02:00,10.0,-2.0,-100.00,NNW,332,12.0,26.0,58,0.00,,,0.00,0.000000,,2013-01-25 01:02:00,
2013-01-24 20:12:00,10.0,-2.0,-100.00,NNW,332,12.0,26.0,58,0.00,,,0.00,0.000000,,2013-01-25 01:12:00,
2013-01-24 20:32:00,10.0,0.0,-100.00,NNW,337,12.0,23.0,62,0.00,,,0.00,0.000000,,2013-01-25 01:32:00,
2013-01-24 20:43:00,10.0,0.0,-100.00,NNW,337,12.0,23.0,62,0.00,,,0.00,0.000000,,2013-01-25 01:43:00,
2013-01-24 20:52:00,10.0,0.0,-100.00,NNW,337,12.0,23.0,62,0.00,,,0.00,0.000000,,2013-01-25 01:52:00,
2013-01-24 21:03:00,10.0,0.0,-100.00,NNW,337,12.0,23.0,62,0.00,,,0.00,0.000000,,2013-01-25 02:03:00,
2013-01-24 21:12:00,10.0,0.0,-100.00,NNW,337,12.0,23.0,62,0.00,,,0.00,0.000000,,2013-01-25 02:12:00,
2013-01-24 21:43:00,10.0,-1.0,-100.00,NNW,342,10.0,21.0,60,0.00,,,0.00,0.000000,,2013-01-25 02:43:00,
2013-01-24 21:53:00,10.0,-1.0,-100.00,NNW,342,10.0,21.0,60,0.00,,,0.00,0.000000,,2013-01-25 02:53:00,
2013-01-24 22:02:00,10.0,-1.0,-100.00,NNW,342,10.0,21.0,60,0.00,,,0.00,0.000000,,2013-01-25 03:02:00,
2013-01-24 22:12:00,10.0,-1.0,-100.00,NNW,342,10.0,21.0,60,0.00,,,0.00,0.000000,,2013-01-25 03:12:00,
2013-01-24 22:42:00,10.0,-2.0,-100.00,NNW,345,8.0,22.0,57,0.00,,,0.00,0.000000,,2013-01-25 03:42:00,
2013-01-24 22:53:00,10.0,-2.0,-100.00,NNW,345,8.0,22.0,57,0.00,,,0.00,0.000000,,2013-01-25 03:53:00,
2013-01-24 23:02:00,10.0,-2.0,-100.00,NNW,345,8.0,22.0,57,0.00,,,0.00,0.000000,,2013-01-25 04:02:00,
2013-01-24 23:12:00,10.0,-2.0,-100.00,NNW,345,8.0,22.0,57,0.00,,,0.00,0.000000,,2013-01-25 04:12:00,
2013-01-24 23:32:00,10.0,-3.0,-100.00,NNW,330,12.0,25.0,55,0.00,,,0.00,0.000000,,2013-01-25 04:32:00,
2013-01-24 23:42:00,10.0,-3.0,-100.00,NNW,330,12.0,25.0,55,0.00,,,0.00,0.000000,,2013-01-25 04:42:00,
2013-01-24 23:52:00,10.0,-3.0,-100.00,NNW,330,12.0,25.0,55,0.00,,,0.00,0.000000,,2013-01-25 04:52:00,